Regional Weather Roundup
Issued by NWS

Home | Current Version | Previous Version | Text Only | Print | Product List | Glossary On
Versions: 1 2 3 4 5 6 7 8 9 10 11 12 13 14 15 16 17 18 19 20 21 22 23 24 25 26 27 28 29 30 31 32 33 34 35 36 37 38 39 40 41 42 43 44 45 46
000
ASUS45 KBOU 020907
RWRCO

WEATHER ROUNDUP FOR COLORADO
NATIONAL WEATHER SERVICE DENVER/BOULDER CO
300 AM MDT THU OCT 02 2014

NOTE: "FAIR" INDICATES FEW OR NO CLOUDS BELOW 12000 FEET WITH NO
SIGNIFICANT WEATHER AND/OR OBSTRUCTIONS TO VISIBILITY.

COZ001>005-013-030-031-021000-
...NORTHWEST COLORADO...

CITY           SKY/WX    TMP DP  RH WIND       PRES   REMARKS
CRAIG          CLOUDY    37  33  85 NW3       30.23R
HAYDEN         CLOUDY    36  32  87 W6        30.22R
MEEKER         PTCLDY    35  32  88 CALM      30.24R
MOUNT WERNER   NOT AVBL
STEAMBOAT SPGS CLOUDY    35  33  94 SW5       30.21R WCI  31
WALDEN         CLOUDY    32  30  93 SW3       30.18R
$$

COZ006>008-011-021000-
...WEST CENTRAL VALLEYS...

CITY           SKY/WX    TMP DP  RH WIND       PRES   REMARKS
GRAND JUNCTION CLEAR     41  37  86 CALM      30.21R
MONTROSE       PTCLDY    40  38  93 S6        30.24R
EAGLE          CLOUDY    37  36  93 CALM      30.23R
RIFLE          CLOUDY    39  36  89 CALM      30.22R
DELTA          FLURRIES  43  40  89 N5        30.21R
NUCLA          PTCLDY    41  34  75 N3        30.25R
$$

COZ017>023-064>068-021000-
...SOUTHWEST COLORADO...

CITY           SKY/WX    TMP DP  RH WIND       PRES   REMARKS
DURANGO        CLEAR     40  32  73 SW8       30.10R
CORTEZ         CLEAR     42  31  64 N8        30.18R
PAGOSA SPRINGS PTCLDY    34  29  83 NE5       30.12R WCI  30
TELLURIDE      PTCLDY   N/A N/A N/A W5        30.21S
WOLF CREEK PAS PTCLDY    23  19  86 SW8       30.22R WCI  14
$$

COZ009-010-012-014-032>034-037-058>063-021000-
...CENTRAL COLORADO...

CITY           SKY/WX    TMP DP  RH WIND       PRES   REMARKS
ASPEN          CLOUDY    35  33  92 CALM      30.21R
BUENA VISTA    CLOUDY    37  25  60 NW10      30.14S
COPPER MTN     CLOUDY    25  19  80 MISG      30.21S
BERTHOUD PASS  CLOUDY    18  14  86 NW30G39   30.19F WCI  -2
COTTONWOOD PAS MOCLDY    32  25  74 N5        30.17S WCI  27
GUNNISON       MOCLDY    36  30  80 SW5       30.20R
KREMMLING      MOCLDY    34  30  86 CALM      30.21S
LEADVILLE      SNOW      26  24  92 N13       30.18S VSB 1/2 WCI  15
SALIDA         CLOUDY    43  27  52 NW8       30.20R
SUNLIGHT       FOG      N/A N/A N/A NW7       30.27R VSB 1/4
WILKERSON PASS NOT AVBL
$$

COZ069>075-021000-
...SAN LUIS VALLEY/SANGRE DE CRISTO MOUNTAINS...

CITY           SKY/WX    TMP DP  RH WIND       PRES   REMARKS
ALAMOSA        PTCLDY    35  29  78 N6        30.10S WCI  30
LA VETA PASS   FOG       32  32 100 NE3       30.17R VSB<1/4
SAGUACHE       MOCLDY    37  30  75 NW17G28   30.14R
$$

COZ035-036-038>040-021000-
...NORTHERN COLORADO FRONT RANGE...

CITY           SKY/WX    TMP DP  RH WIND       PRES   REMARKS
DENVER INTL AP CLOUDY    43  39  86 W9        30.09F
DMNS CITY PARK   N/A     42  40  91 S5        30.10F
AURORA         CLOUDY    41  40  99 W6        30.11S
FRONT RANGE AP CLOUDY    45  43  93 W8        30.10S
ERIE MUNI ARPT CLOUDY    42  41  95 CALM      30.09F
BOULDER MUN AP CLOUDY    43  41  93 SW3       30.10S
CENTENNIAL     CLOUDY    39  38  96 SW8       30.11S
BROOMFIELD     CLOUDY    41  39  93 CALM      30.11S
FORT COLLINS   CLOUDY    43  37  81 SW6       30.10F
LONGMONT       CLOUDY    44  41  89 CALM      30.11S FOG
$$

COZ041-046-047-076>085-087-088-021000-
...PIKES PEAK/PALMER DIVIDE AND SOUTHERN FOOTHILLS...

CITY           SKY/WX    TMP DP  RH WIND       PRES   REMARKS
COLO. SPRINGS  PTCLDY    41  34  76 NW16      30.09R
A. F. ACADEMY  PTCLDY    38  33  83 N15       30.09S
ELLICOTT       NOT AVBL
FALCON         PTCLDY    37  33  83 N16G23    30.08S
FORT CARSON    PTCLDY    41  34  76 N14G23    30.06S
LIMON          CLOUDY    42  39  89 NW14      30.06F
MONUMENT HILL  CLOUDY    34  34 100 NW8       30.10F WCI  27
TRINIDAD       MOCLDY    45  38  76 NW7       30.08R
$$

COZ042>045-048>051-090-091-021000-
...NORTHEAST COLORADO...

CITY           SKY/WX    TMP DP  RH WIND       PRES   REMARKS
GREELEY ARPT   CLOUDY    45  36  70 W3        30.09F
AKRON          CLOUDY    44  42  93 NW13      30.05R
BURLINGTON     CLOUDY    47  44  90 N16G28    30.01S
WRAY           CLOUDY    48  48 100 NW9       30.02F
STERLING       CLOUDY    46  45  93 N9        30.04F
HOLYOKE        CLOUDY    50  45  81 NW7       30.04R
FORT MORGAN    CLOUDY    42  40  93 W5        30.07F
$$

COZ086-089-092>099-021000-
...SOUTHEAST COLORADO...

CITY           SKY/WX    TMP DP  RH WIND       PRES   REMARKS
PUEBLO         MOCLDY    49  36  61 N20       30.03S
LA JUNTA       PTCLDY    49  38  65 N8        30.03S
LAMAR          PTCLDY    50  45  83 N12       29.96S
SPRINGFIELD      N/A     47  43  86 NW23      29.95S
$$


USA.gov is the U.S. government's official web portal to all federal, state and local government web resources and services.